Regional Weather Roundup
Issued by NWS

Home | Current Version | Previous Version | Graphics & Text | Print | Product List | Glossary On
Versions: 1 2 3 4 5 6 7 8 9 10 11 12 13 14 15 16 17 18 19 20 21 22 23 24 25 26 27 28 29 30 31 32 33 34 35 36 37 38 39 40 41 42 43 44 45 46 47 48 49 50
000
ASUS43 KDTX 291210
RWRMI
MICHIGAN HOURLY REGIONAL WEATHER ROUNDUP
NATIONAL WEATHER SERVICE DETROIT/PONTIAC MI
800 AM EDT SAT AUG 29 2015

NOTE: "FAIR" INDICATES FEW OR NO CLOUDS BELOW 12,000 FEET WITH NO
SIGNIFICANT WEATHER AND/OR OBSTRUCTION TO VISIBILITY.

MIZ047>049-052>055-059>063-066>070-074>076-081>083-291300-
SOUTHEAST LOWER MICHIGAN

CITY           SKY/WX    TMP DP  RH WIND       PRES   REMARKS
ADRIAN         CLOUDY    61  59  93 E3        30.15R
6HR MIN TEMP:  59; 6HR MAX TEMP:  64;

ALMA           RAIN      60  60  99 E3        30.14S
ANN ARBOR      CLOUDY    61  59  93 MISG      30.15R FOG
BAD AXE        LGT RAIN  61  60  96 CALM      30.17R
CARO           CLOUDY    61  60  97 CALM      30.15R FOG
DETROIT CITY   CLOUDY    65  61  87 CALM      30.15R
6HR MIN TEMP:  64; 6HR MAX TEMP:  67;

DETROIT        CLOUDY    65  62  90 CALM      30.16R
6HR MIN TEMP:  64; 6HR MAX TEMP:  66;

FLINT          CLOUDY    65  61  87 E6        30.15R FOG
6HR MIN TEMP:  64; 6HR MAX TEMP:  67; 6HR PCP:  0.02;

GROSSE ILE     CLOUDY    64  63  94 CALM      30.14R
HILLSDALE      CLOUDY    63  61  93 SE3       30.14R
6HR MIN TEMP:  62; 6HR MAX TEMP:  65;

HOWELL         CLOUDY    61  61  98 CALM      30.15R FOG
6HR MIN TEMP:  61; 6HR MAX TEMP:  65;


CITY           SKY/WX    TMP DP  RH WIND       PRES   REMARKS
JACKSON        CLOUDY    63  59  87 SE3       30.14R
6HR MIN TEMP:  59; 6HR MAX TEMP:  65;

LAMBERTVILLE   CLOUDY    61  58  90 CALM      30.15R
6HR MIN TEMP:  60; 6HR MAX TEMP:  65;

LANSING        CLOUDY    62  61  96 E5        30.14R
6HR MIN TEMP:  62; 6HR MAX TEMP:  64; 6HR PCP: TRACE;

LAPEER         FAIR      60  60 100 CALM      30.16R FOG
6HR MIN TEMP:  58; 6HR MAX TEMP:  63; 6HR PCP:  0.03;

MASON          CLOUDY    61  58  90 CALM      30.14R FOG
6HR MIN TEMP:  61; 6HR MAX TEMP:  64;

MONROE         CLOUDY    61  60  94 CALM      30.14R
6HR MIN TEMP:  60; 6HR MAX TEMP:  65;

MT. CLEMENS    CLOUDY    63  61  95 CALM      30.13R FOG
6HR MIN TEMP:  61; 6HR MAX TEMP:  65;

PONTIAC        CLOUDY    64  62  93 CALM      30.15R FOG
6HR MIN TEMP:  62; 6HR MAX TEMP:  65; 6HR PCP: TRACE;

PORT HOPE        N/A     63  59  87 W5        30.13R
6HR MIN TEMP:  63; 6HR MAX TEMP:  65;

PORT HURON     CLOUDY    59  59 100 CALM      30.16R FOG
TRI CITIES     LGT RAIN  63  59  87 E3        30.15S
6HR MIN TEMP:  63; 6HR MAX TEMP:  65; 6HR PCP:  0.12;

MIDLAND        PTSUNNY   61  60  94 CALM      30.13S
TROY           CLOUDY    65  63  93 CALM      30.17R FOG
SAGINAW HB     CLOUDY    61  61 100 CALM      30.14S
$$
MIZ043>046-050>051-056>058-064>065-071>073-077>080-291300-
SOUTHWEST LOWER MICHIGAN

CITY           SKY/WX    TMP DP  RH WIND       PRES   REMARKS
BATTLE CREEK   CLOUDY    65  59  81 SE3       30.13R
6HR MIN TEMP:  63; 6HR MAX TEMP:  68;

BENTON HARBOR  RAIN      63  60  90 CALM      30.09R FOG
6HR MIN TEMP:  63; 6HR MAX TEMP:  66; 6HR PCP:  0.11;

BIG RAPIDS     RAIN      59  58  96 CALM      30.12S
6HR MIN TEMP:  58; 6HR MAX TEMP:  60; 6HR PCP:  0.07;

COLDWATER      CLOUDY    63  59  88 SE5       30.13R
6HR MIN TEMP:  60; 6HR MAX TEMP:  65;

FREMONT        RAIN      59  59 100 E3        30.11R
HOLLAND        LGT RAIN  63  60  90 E6        30.10R
6HR MIN TEMP:  63; 6HR MAX TEMP:  66; 6HR PCP:  0.03;

GRAND RAPIDS   LGT RAIN  62  60  93 E7        30.12R
6HR MIN TEMP:  61; 6HR MAX TEMP:  65; 6HR PCP:  0.02;

IONIA          LGT RAIN  61  61  99 E6        30.12S
6HR MIN TEMP:  61; 6HR MAX TEMP:  64; 6HR PCP:  0.02;

KALAMAZOO      CLOUDY    64  58  80 S3        30.12R
6HR MIN TEMP:  64; 6HR MAX TEMP:  67;

LUDINGTON      CLOUDY    61  58  92 E3        30.11S FOG
6HR MIN TEMP:  61; 6HR MAX TEMP:  64; 6HR PCP:  0.20;

MARSHALL       CLOUDY    61  59  94 E3        30.12R
6HR MIN TEMP:  59; 6HR MAX TEMP:  64;

MOUNT PLEASANT DRIZZLE   62  59  92 E6        30.11F
6HR MIN TEMP:  62; 6HR MAX TEMP:  65; 6HR PCP:  0.07;

MUSKEGON       LGT RAIN  61  57  87 SE8       30.10R
6HR MIN TEMP:  61; 6HR MAX TEMP:  63; 6HR PCP:  0.15;

SOUTH HAVEN    LGT RAIN  63  60  90 SE3       30.09R
$$
MIZ016>042-291300-
NORTHERN LOWER MICHIGAN

CITY           SKY/WX    TMP DP  RH WIND       PRES   REMARKS
ALPENA         LGT RAIN  61  59  93 SW6       30.13S
6HR MIN TEMP:  61; 6HR MAX TEMP:  64; 6HR PCP:  0.10;

BEAVER ISLAND  CLOUDY    63  60  88 SW10G16   30.09S
BELLAIRE       CLOUDY    61  59  94 CALM      30.13S
6HR MIN TEMP:  60; 6HR MAX TEMP:  63;

CADILLAC       DRIZZLE   58  58  97 NE3       30.12R
CHARLEVOIX     LGT RAIN  61  60  97 SW6       30.14S
6HR MIN TEMP:  61; 6HR MAX TEMP:  64;

FRANKFORT      RAIN      59  58  97 CALM      30.12R
GAYLORD        LGT RAIN  60  60 100 SW7       30.14S
6HR MIN TEMP:  60; 6HR MAX TEMP:  61; 6HR PCP:  0.11;

GRAYLING       DRIZZLE   56  55  94 CALM      30.15F
6HR MIN TEMP:  56; 6HR MAX TEMP:  60;

HARBOR SPRINGS CLOUDY    61  59  93 SW8       30.12R
HOUGHTON LAKE  CLOUDY    57  55  93 N5        30.14F
6HR MIN TEMP:  56; 6HR MAX TEMP:  62; 6HR PCP:  0.15;

MANISTEE       CLOUDY    61  55  82 E6        30.11F
OSCODA         DRIZZLE   60  58  92 W6        30.13F
6HR MIN TEMP:  59; 6HR MAX TEMP:  62;

PELLSTON       CLOUDY    63  60  90 SW6       30.11S
6HR MIN TEMP:  62; 6HR MAX TEMP:  65; 6HR PCP:  0.04;

ROGERS CITY    LGT RAIN  62  60  92 SW7       30.13R
TRAVERSE CITY  CLOUDY    62  59  90 CALM      30.11F
6HR MIN TEMP:  61; 6HR MAX TEMP:  64; 6HR PCP:  0.26;

$$
MIZ007>008-015-291300-
EASTERN UPPER MICHIGAN

CITY           SKY/WX    TMP DP  RH WIND       PRES   REMARKS
KINROSS        CLOUDY    63  61  94 SW6       30.07S
6HR MIN TEMP:  63; 6HR MAX TEMP:  64;

MACKINAC ISLAN CLOUDY    64  59  86 SW13G21   30.09S
6HR MIN TEMP:  62; 6HR MAX TEMP:  65; 6HR PCP:  0.02;

NEWBERRY       CLOUDY    61  56  85 SW13      30.06S
6HR MIN TEMP:  61; 6HR MAX TEMP:  65;

S. S. MARIE    CLOUDY    64  61  90 SW6       30.05R
6HR MIN TEMP:  63; 6HR MAX TEMP:  65; 6HR PCP:  0.26;

MUNISING         N/A     64  57  78 SW12      30.01F
6HR MIN TEMP:  63; 6HR MAX TEMP:  68;

$$
MIZ004>006-011>014-085-291300-
CENTRAL UPPER MICHIGAN

CITY           SKY/WX    TMP DP  RH WIND       PRES   REMARKS
MANISTIQUE     PTCLDY    60  57  89 SW7       30.07R
6HR MIN TEMP:  60; 6HR MAX TEMP:  64;

ESCANABA       CLEAR     57  54  88 W5        30.07R
6HR MIN TEMP:  57; 6HR MAX TEMP:  64;

MENOMINEE      CLOUDY    59  54  82 S3        30.08F
6HR MIN TEMP:  57; 6HR MAX TEMP:  63;

SAWYER-GWINN   MOCLDY    59  55  88 SW9       30.04R
$$
MIZ001>003-009>011-084-291300-
WESTERN UPPER MICHIGAN

CITY           SKY/WX    TMP DP  RH WIND       PRES   REMARKS
IRON MOUNTAIN  CLEAR     56  54  93 S6        30.06R
6HR MIN TEMP:  54; 6HR MAX TEMP:  64;

HOUGHTON       CLOUDY    60  56  86 SW7       29.99R
6HR MIN TEMP:  60; 6HR MAX TEMP:  66; 6HR PCP:  0.01;

COPPER HARBOR    N/A     63  58  83 NW8       29.98S
6HR MIN TEMP:  59; 6HR MAX TEMP:  70; 6HR PCP:  0.01;

IRONWOOD       MOCLDY    57  54  88 S9        29.96R
6HR MIN TEMP:  57; 6HR MAX TEMP:  63;

$$

ABBREVIATIONS USED IN REMARKS
   TC - TEMPERATURE IN CELSIUS
  WCI - WIND CHILL INDEX
   HX - HEAT INDEX
  VSB - VISIBILITY




USA.gov is the U.S. government's official web portal to all federal, state and local government web resources and services.